Regional Weather Roundup
Issued by NWS

Home | Current Version | Previous Version | Text Only | Print | Product List | Glossary On
Versions: 1 2 3 4 5 6 7 8 9 10 11 12 13 14 15 16 17 18 19 20 21 22 23 24 25 26 27 28 29 30 31 32 33 34 35 36 37 38 39 40 41 42 43 44 45 46 47 48 49 50
992
ASUS43 KMKX 241500
RWRWI

WISCONSIN REGIONAL WEATHER ROUNDUP
NATIONAL WEATHER SERVICE MILWAUKEE/SULLIVAN WI
1000 AM CDT SUN JUL 24 2016

NOTE: "FAIR" INDICATES FEW OR NO CLOUDS BELOW 12,000 FEET WITH NO
SIGNIFICANT WEATHER AND/OR OBSTRUCTIONS TO VISIBILITY.

WIZ001-002-006>008-014>016-023>028-241600-
NORTHWEST WISCONSIN

CITY           SKY/WX    TMP DP  RH WIND       PRES   REMARKS
SUPERIOR ARPT  MOSUNNY   74  68  83 SW7       29.79R
ASHLAND        MOSUNNY   77  68  73 W12       29.77S
HAYWARD        CLOUDY    72  68  87 VRB6      29.82R
SIREN          PTSUNNY   75  66  73 NW10      29.83R
CUMBERLAND     PTSUNNY   73  68  83 W12       29.83S
RICE LAKE      MOSUNNY   75  70  84 W9        29.83S
CHETEK         MOSUNNY   76  71  86 NW3       29.82S
LADYSMITH      CLOUDY    73  70  91 W5        29.84R
EAU CLAIRE     NOT AVBL
MENOMONIE      PTSUNNY   77  76  99 W6        29.82R
NEW RICHMOND   MOSUNNY   78  71  79 W12       29.84R HX  80
OSCEOLA        MOSUNNY   77  69  77 W13       29.87R
$$

WIZ003>005-009-010-017-018-241600-
NORTH CENTRAL WISCONSIN

CITY           SKY/WX    TMP DP  RH WIND       PRES   REMARKS
MANITOWISH WTR CLOUDY    72  71  96 SW8       29.81S
ARBOR VITAE    CLOUDY    72  69  89 W6        29.82S
WOODRUFF       CLOUDY    72  69  89 W6        29.82S
RHINELANDER    CLOUDY    72  70  93 W5        29.83S FOG
EAGLE RIVER    CLOUDY    75  69  84 W10       29.82S
LAND O LAKES   PTSUNNY   74  67  78 SW7       29.82S
PHILLIPS       CLOUDY    72  70  95 CALM      29.82R
TOMAHAWK       CLOUDY    71  69  95 CALM      29.82S FOG
MEDFORD        FOG       71  71 100 SW5       29.82R VSB 3/4
MERRILL        CLOUDY    73  73 100 W5        29.82S
$$

WIZ029-030-035-036-043>047-241600-
CENTRAL WISCONSIN

CITY           SKY/WX    TMP DP  RH WIND       PRES   REMARKS
WAUSAU         CLOUDY    73  72  96 SW8       29.80R FOG
MOSINEE        FOG       73  73 100 SW6       29.83R VSB 1
MARSHFIELD     CLOUDY    75  73  93 SW7       29.81R FOG
STEVENS POINT  CLOUDY    73  73 100 SW6       29.81S FOG
WAUPACA        CLOUDY    76  76 100 S3        29.81R
WAUTOMA        CLOUDY    76  75  97 S5        29.82R
WISC RAPIDS    CLOUDY    78  74  87 W5        29.82R HX  81
CAMP DOUGLAS   NOT AVBL
$$

WIZ011>013-019>022-031-037>040-048>050-241600-
NORTHEAST WISCONSIN

CITY           SKY/WX    TMP DP  RH WIND       PRES   REMARKS
ANTIGO         CLOUDY    71  71 100 CALM      29.83S FOG
SHAWANO        CLOUDY    74  72  92 SW3       29.81R FOG
OCONTO         CLOUDY   N/A N/A N/A SW3       29.79F
STURGEON BAY   CLOUDY    72  69  90 S9G18     29.81F
GREEN BAY      CLOUDY    73  73 100 S10       29.80S
MANITOWOC      TSTM      72  70  94 S16       29.83F
APPLETON       CLOUDY    73  73 100 SW8       29.80F
CLINTONVILLE   CLOUDY    72  72 100 S6        29.81R FOG
OSHKOSH        CLOUDY    78  74  87 S9        29.80F HX  81
$$

WIZ032>034-041-042-053>061-241600-
SOUTHWEST WISCONSIN

CITY           SKY/WX    TMP DP  RH WIND       PRES   REMARKS
LA CROSSE      CLOUDY    82  77  84 NW7       29.80R HX  90
SPARTA         CLOUDY    78  75  90 W6        29.82R HX  80
VIROQUA        CLOUDY    78  78  99 W6        29.84R HX  80
BOSCOBEL       PTSUNNY   85  77  77 SW7       29.82R HX  95
PRAIRIE DU CHI CLOUDY    82  75  78 W6        29.82R HX  89
PLATTEVILLE    SUNNY     83  81  92 SW10      29.85S HX  96
$$

WIZ056-057-062-063-064-067-068-241600-
SOUTH CENTRAL WISCONSIN

CITY           SKY/WX    TMP DP  RH WIND       PRES   REMARKS
REEDSBURG      CLOUDY   N/A N/A N/A SW10      29.80S
BARABOO/DELLS  CLOUDY    81  76  84 SW9       29.81F HX  88
LONE ROCK      PTSUNNY   84  77  79 SW7       29.81F HX  94
MINERAL POINT  PTSUNNY   84  79  84 SW8       29.85S HX  96
MADISON        PTSUNNY   84  77  79 SW8       29.83S HX  94
MIDDLETON      MOSUNNY   83  77  80 SW12      29.84S HX  92
WATERTOWN      CLOUDY    80  78  92 SW10G16   29.84S HX  88
MONROE         SUNNY     82  77  83 SW16      29.86S HX  91
JANESVILLE     NOT AVBL
$$

WIZ051-052-058>065-066-070>072-241600-
SOUTHEAST WISCONSIN

CITY           SKY/WX    TMP DP  RH WIND       PRES   REMARKS
MILWAUKEE      CLOUDY    81  75  82 S14       29.84F HX  87
WAUKESHA       SUNNY     75  73  94 S7        29.86
MILWAUKEE/TIMM PTSUNNY   75  70  83 S7        29.86F
RACINE         LGT RAIN  79  74  84 S9        29.87F HX  82
BURLINGTON     CLOUDY    78  75  90 S7        29.87S HX  81
KENOSHA        CLOUDY    80  74  81 S12G20    29.87F HX  85
FOND DU LAC    CLOUDY    80  75  84 SW13      29.82F HX  85
SHEBOYGAN      CLOUDY    72  69  90 E8        29.85S THUNDER
WEST BEND      CLOUDY    73  70  88 S8        29.85F
JUNEAU         CLOUDY    78  74  90 S12       29.86R
$$

LSZ147-162-241600-
LAKE SUPERIOR

STATION/POSITION TIME  TEMP    WIND        PRES    WAVE
                       AIR SEA DIR/SP/G            HT/PER
                 (UTC) (F)     (DEG/KT/KT) (MB)    (FT/S)
W MID LAKE BUOY  1350   62 57  210/  8/  8 1005.7F   1/ 4
DEVILS ISLAND    1400   63     250/  9/ 10 1007.2R
PORT WING        1400   67     270/  8/ 10 1007.8
SAXON HARBOR     1440   76     230/  6/ 13 1007.5S
$$

LMZ867-665-643>646-241600-
LAKE MICHIGAN

STATION/POSITION TIME  TEMP    WIND        PRES    WAVE
                       AIR SEA DIR/SP/G            HT/PER
                 (UTC) (F)     (DEG/KT/KT) (MB)    (FT/S)
CHAMBERS ISLAND  1400   74     170/  5/ 11 1008.5F
S GREEN BAY BUOY 1400   74 74  180/ 14/ 17   N/A
N MID LAKE BUOY  1350   69 69  190/ 16/ 17 1008.9F   2/ 5
NORTHPORT PIER   1400   73     150/  7/ 12 1008.8F
KEWAUNEE LAKESHO 1400   64     190/ 11/ 14 1009.6F
SHEBOYGAN LAKESH 1400   63     180/ 16/ 16 1010.4F
PORT WASHINGTON  1440   65     190/  9/ 14 1011.2F
MILWAUKEE LAKESH 1410   62     150/ 13/ 15   N/A
S MID LAKE BUOY  1350   72 72  100/ 14/ 17 1012.6F   2/ 4
KENOSHA   LAKESH 1400   65     180/ 18/ 20 1011.5F
$$

TC  - TEMPERATURE IN CELSIUS
VSB - VISIBILITY IN STATUTE MILES
WCI - WIND CHILL INDEX
HX  - HEAT INDEX





USA.gov is the U.S. government's official web portal to all federal, state and local government web resources and services.